Location: Palo Alto
(37.4420°N, 122.1420°W)
Time: 20:33:25
(UTC-07:00)

ARGOS - Visible Passes

Search period start: 22 April 2018 00:00
Search period end: 02 May 2018 00:00
Orbit: 820 x 835 km, 98.6° (Epoch: 22 April)

Date Brightness Start Highest point End Pass type
(mag) Time Alt. Az. Time Alt. Az. Time Alt. Az.
22 Apr 4.1 21:10:53 23° ESE 21:12:56 30° ENE 21:17:31 10° N visible
22 Apr 4.4 22:52:23 31° WSW 22:53:04 32° W 22:57:49 10° NW visible
23 Apr 4.6 20:52:00 15° E 20:54:33 21° ENE 20:58:24 10° NNE visible
23 Apr 3.8 22:33:30 43° SW 22:34:24 47° W 22:39:35 10° NNW visible
24 Apr 5.0 20:33:32 10° E 20:36:12 14° ENE 20:38:53 10° NNE visible
24 Apr 3.2 22:14:36 53° SSW 22:15:47 72° WSW 22:21:09 10° NNW visible
25 Apr 3.0 21:55:42 48° SSE 21:57:13 77° ENE 22:02:35 10° N visible
25 Apr 5.7 23:37:13 11° W 23:38:00 11° W 23:39:39 10° WNW visible
26 Apr 3.4 21:36:49 35° SE 21:38:42 51° ENE 21:43:53 10° N visible
26 Apr 5.2 23:18:19 17° WSW 23:19:12 18° W 23:22:47 10° NW visible
27 Apr 3.9 21:17:55 24° ESE 21:20:14 35° ENE 21:25:03 10° N visible
27 Apr 4.7 22:59:27 25° WSW 23:00:29 27° W 23:04:58 10° NW visible
28 Apr 4.4 20:59:02 16° ESE 21:01:49 24° ENE 21:06:01 10° NNE visible
28 Apr 4.1 22:40:32 35° SW 22:41:48 40° W 22:46:49 10° NNW visible
29 Apr 4.8 20:40:13 10° E 20:43:28 17° ENE 20:46:43 10° NNE visible
29 Apr 3.5 22:21:39 44° SSW 22:23:09 61° W 22:28:28 10° NNW visible
30 Apr 5.1 20:23:45 10° ENE 20:25:09 11° ENE 20:26:34 10° NE visible
30 Apr 3.0 22:02:46 44° SSE 22:04:34 90° SSE 22:09:58 10° NNW visible
01 May 3.2 21:43:53 35° SE 21:46:01 61° ENE 21:51:19 10° N visible
01 May 5.4 23:25:23 14° WSW 23:26:39 15° W 23:29:38 10° WNW visible
